[[{"header":{"parameterUnit":"m.s-1","parameterCategory":1,"la1":30.2991,"la2":30.254,"lo1":-89.0895,"lo2":-89.0444,"dy":0.0017,"dx":0.0017,"nx":28,"ny":28,"refTime":"2025-07-30T21:00:00:Z","depth":0,"parameterNumber":2,"parameterNumberName":"U-component_of_WINDS"},"data":[0,0,0,0,0,0,0,0,0,0,0,0,0,0,0,0,0,0,0,0,0,0,0,0,0,0,0,0,0,0,0,0,0,0,0,0,0,0,0,0,0,0,0,0,0,0,0,0,0,0,0,0,0,0,0,0,0,0,0.9803,0.9802,0,0.9643,0.9642,0.964,0.9391,0.9386,0.9382,0.9377,0.9218,0.9218,0.9218,0,0,0,0,0,0,0,0,0,0,0,0,0,0.9896,0.9896,0.9803,0.9801,0.9799,0.9644,0.9642,0.9639,0.9391,0.9386,0.9381,0.9375,0.9218,0.9218,0.9218,0,0,0,0,0,0,0,0,0,0,0,0,0,0.9808,0.9896,0.9804,0.9657,0.9642,0.9644,0.9642,0.9639,0.9393,0.9386,0.9379,0.9373,0.9218,0.9218,0.9218,0.9352,0,0,0.9218,0.9218,0,0,0,0,0,0,0,0,0.9814,0.9805,0.968,0.9667,0.965,0.953,0.9615,0.9543,0.9394,0.9488,0.9377,0.937,0.9328,0.9318,0.9303,0.9345,0.9338,0.9218,0.9218,0.9218,0.9218,0,0,0,0,0,0,0,0.982,0.9811,0.974,0.9679,0.9661,0.96,0.958,0.9601,0.9448,0.9479,0.946,0.9445,0.9318,0.9304,0.9297,0.9335,0.9218,0.9218,0.9218,0.9217,0.9477,0.9484,0,0,0,0,0,0,0.9847,0.9817,0.9745,0.9735,0.9717,0.9603,0.9581,0.9576,0.9446,0.942,0.9451,0.9434,0.9307,0.9298,0.9291,0.9439,0.9218,0.9217,0.9217,0.947,0.9479,0.9486,0,0,0,0,0,0,0.985,0.9843,0.9752,0.9771,0.9755,0.9609,0.9605,0.9576,0.9561,0.9425,0.9397,0.9464,0.9301,0.9291,0.9338,0.943,0.9217,0.9217,0.9462,0.9473,0.9483,0.9737,0,0,0,0,0,0,0.9854,0.9846,0.9895,0.9774,0.9755,0.9802,0.961,0.9578,0.9561,0.9538,0.943,0.9406,0.9295,0.934,0.9338,0.9426,0.9217,0.9453,0.9467,0.9479,0.972,0.9755,0.9785,0,0,0,0,0,0.9858,0.9974,0.9899,0.9892,0.9813,0.9808,0.9797,0.9666,0.957,0.9618,0.953,0.9409,0.942,0.9347,0.9343,0.9432,0.9447,0.9463,0.9478,0.9706,0.9748,0.9784,0,0,0,0,0,0,1.0112,0.9956,0.9871,0.9951,0.9894,0.9766,0.9823,0.9716,0.9687,0.9666,0.9506,0.9484,0.9552,0.9495,0.9417,0.9554,0.9415,0.943,0.9589,0.9628,0.966,0.9673,0.9217,0,0,0,0,0,1.0177,1.0185,1.0048,1.0132,1.0108,0.9971,0.9964,0.9868,0.9803,0.9779,0.9694,0.9637,0.9626,0.9624,0.9607,0.971,0.9683,0.9769,0.9802,0.9829,0.9845,0.9895,0.9931,0.9538,0.9538,0.9537,0,0,1.0312,1.0228,1.0243,1.0181,1.0126,1.0138,0.9953,0.9974,0.9981,0.9782,0.9821,0.9757,0.9682,0.9758,0.9787,0.9714,0.9947,0.9849,0.9872,0.9873,0.9915,0.9952,0.9985,0.9548,0.9546,0.9545,0,0,1.0565,1.0501,1.0564,1.0512,1.043,1.0337,1.0353,1.024,1.0189,1.0225,1.0076,1.0082,1.0069,1.0022,0.9996,1.0228,1.0116,1.0227,1.0399,1.0449,1.048,1.0506,1.059,1.0622,1.0243,1.0244,1.0244,0,1.0743,1.0755,1.061,1.064,1.0618,1.0435,1.0498,1.0454,1.0373,1.0362,1.028,1.0257,1.0194,1.0256,1.0313,1.0298,1.031,1.024,1.0487,1.0512,1.0535,1.0613,1.0645,1.0258,1.0257,1.0255,1.0254,0,1.0979,1.0989,1.105,1.0973,1.0957,1.1004,1.0867,1.0867,1.0772,1.0689,1.0728,1.0645,1.0608,1.0615,1.0524,1.0664,1.0621,1.0516,1.0372,1.0589,1.0659,1.0688,1.0278,1.0273,1.0269,1.0266,0,0,1.1389,1.123,1.1255,1.1218,1.1113,1.1118,1.1156,1.1118,1.1123,1.1072,1.11,1.1091,1.0992,1.0963,1.0864,1.0908,1.1097,1.0796,1.0792,1.0856,1.1247,1.1329,1.1366,1.1021,1.1026,1.103,1.1254,0,1.1621,1.1677,1.1547,1.1634,1.1642,1.1468,1.15,1.144,1.1363,1.1359,1.1272,1.1269,1.1139,1.112,1.1155,1.1067,1.1174,1.1049,1.1047,1.1049,1.1073,1.1402,1.1489,1.1704,1.128,1.1285,1.1288,0,1.19,1.1862,1.1951,1.1839,1.1837,1.187,1.1824,1.1821,1.1749,1.1689,1.1657,1.154,1.1569,1.143,1.1468,1.1386,1.1377,1.1333,1.1338,1.1335,1.1184,1.1409,1.1769,1.1803,1.133,1.1327,1.1324,0,1.2192,1.2162,1.2211,1.2184,1.2056,1.2082,1.203,1.1951,1.1936,1.1896,1.1885,1.185,1.1831,1.1806,1.1683,1.1593,1.1736,1.1587,1.1689,1.1692,1.1729,1.1729,1.2095,1.1721,1.172,1.172,1.1719,0,1.2466,1.2528,1.234,1.2371,1.2434,1.2283,1.235,1.228,1.2211,1.2225,1.2072,1.2088,1.1923,1.1921,1.1825,1.1871,1.1864,1.1817,1.1791,1.1832,1.1838,1.1826,1.1808,1.1728,1.1726,1.1725,1.1723,0,1.2804,1.2681,1.2722,1.2596,1.2566,1.2619,1.251,1.2533,1.2445,1.2465,1.2461,1.2323,1.2313,1.2186,1.2149,1.2083,1.2169,1.2114,1.2194,1.2177,1.2286,1.2279,1.2658,1.2701,1.23,1.2304,1.2307,0,1.2988,1.303,1.2908,1.2906,1.2861,1.286,1.2843,1.2696,1.2686,1.2605,1.2639,1.2615,1.259,1.2581,1.2478,1.2449,1.2392,1.2527,1.2387,1.2427,1.2396,1.2396,1.2399,1.2559,1.2564,1.2568,1.2571,0,1.3327,1.3264,1.3246,1.3207,1.3191,1.3154,1.3106,1.3113,1.2951,1.2947,1.2934,1.2915,1.2875,1.2855,1.2806,1.2752,1.2636,1.2616,1.2638,1.2681,1.2726,1.2704,1.2277,1.2608,1.2605,1.2602,1.26,1.2598,1.3594,1.3623,1.3542,1.3527,1.3476,1.3435,1.345,1.3363,1.3349,1.3306,1.3219,1.322,1.3145,1.3067,1.3023,1.3021,1.2952,1.2984,1.2992,1.3003,1.3026,1.2725,1.3012,1.3011,1.3009,1.3008,1.3007,0,1.3926,1.3865,1.3852,1.379,1.3779,1.3668,1.3609,1.3607,1.3609,1.3549,1.3526,1.3511,1.349,1.3384,1.3351,1.337,1.3316,1.3367,1.3365,1.3354,1.3089,1.3074,1.3411,1.3411,1.3411,1.3411,1.3411,1.3411,1.4098,1.4143,1.407,1.4087,1.4024,1.4023,1.4,1.3961,1.3912,1.3902,1.3883,1.3814,1.3735,1.3695,1.367,1.3639,1.3635,1.3705,1.3657,1.3412,1.3373,1.3336,1.3321,1.3704,1.3705,1.3922,1.3924,1.3925]},{"header":{"parameterUnit":"m.s-1","parameterCategory":1,"la1":30.2991,"la2":30.254,"lo1":-89.0895,"lo2":-89.0444,"dy":0.0017,"dx":0.0017,"nx":28,"ny":28,"refTime":"2025-07-30T21:00:00:Z","depth":0,"parameterNumber":3,"parameterNumberName":"V-component_of_WINDS"},"data":[0,0,0,0,0,0,0,0,0,0,0,0,0,0,0,0,0,0,0,0,0,0,0,0,0,0,0,0,0,0,0,0,0,0,0,0,0,0,0,0,0,0,0,0,0,0,0,0,0,0,0,0,0,0,0,0,0,0,2.9455,2.9454,0,2.9352,2.9351,2.935,2.9311,2.9311,2.9312,2.9312,2.9199,2.9196,2.9192,0,0,0,0,0,0,0,0,0,0,0,0,0,2.9611,2.9608,2.9455,2.9454,2.9453,2.9353,2.9351,2.935,2.9311,2.9311,2.9312,2.9312,2.92,2.9196,2.9192,0,0,0,0,0,0,0,0,0,0,0,0,0,2.9529,2.9607,2.9456,2.9422,2.9418,2.9353,2.9351,2.9349,2.9311,2.9311,2.9312,2.9312,2.9201,2.9196,2.9191,2.9151,0,0,2.9176,2.9174,0,0,0,0,0,0,0,0,2.9534,2.9523,2.9428,2.9424,2.9419,2.9345,2.9364,2.9282,2.9311,2.9351,2.9312,2.9313,2.9247,2.9238,2.9217,2.9145,2.9141,2.9176,2.9173,2.9171,2.9169,0,0,0,0,0,0,0,2.9539,2.9527,2.9414,2.9426,2.9421,2.9409,2.9398,2.9349,2.9297,2.9348,2.9345,2.9333,2.9244,2.9222,2.9214,2.9139,2.9176,2.9172,2.9168,2.9167,2.9027,2.9027,0,0,0,0,0,0,2.9552,2.9533,2.9418,2.9411,2.9479,2.9406,2.9393,2.9368,2.9298,2.9287,2.9333,2.9332,2.923,2.922,2.921,2.9157,2.9171,2.9166,2.9163,2.9028,2.9027,2.9026,0,0,0,0,0,0,2.9555,2.9542,2.9422,2.9471,2.9455,2.9403,2.9375,2.9366,2.9344,2.9287,2.9276,2.932,2.923,2.9217,2.9166,2.9152,2.9164,2.9159,2.9029,2.9028,2.9027,2.9051,0,0,0,0,0,0,2.956,2.9544,2.9529,2.9471,2.9453,2.9382,2.9374,2.9364,2.9336,2.9334,2.9272,2.9262,2.923,2.9174,2.9161,2.9146,2.9155,2.903,2.9028,2.9027,2.9051,2.9051,2.9051,0,0,0,0,0,2.9566,2.9539,2.9529,2.9515,2.9434,2.9381,2.937,2.9336,2.9336,2.9319,2.9283,2.9264,2.9157,2.9169,2.9154,2.9137,2.903,2.9029,2.9027,2.9051,2.9051,2.9051,0,0,0,0,0,0,2.9593,2.953,2.9519,2.9472,2.9433,2.9375,2.9353,2.9336,2.9294,2.9293,2.925,2.9236,2.9188,2.9157,2.9172,2.9094,2.9092,2.9087,2.9115,2.9114,2.9114,2.9121,2.9151,0,0,0,0,0,2.9595,2.956,2.9505,2.947,2.9451,2.9406,2.9381,2.9359,2.9314,2.9297,2.9256,2.9212,2.9168,2.914,2.9096,2.9047,2.9032,2.9028,2.9028,2.9028,2.9024,2.8994,2.8991,2.9021,2.9021,2.9021,0,0,2.9596,2.9557,2.9537,2.9474,2.9441,2.9403,2.9392,2.9352,2.9323,2.929,2.9239,2.9208,2.9156,2.9106,2.9081,2.9079,2.9013,2.9026,2.9026,2.9022,2.8992,2.8989,2.8987,2.902,2.902,2.902,0,0,2.9578,2.9547,2.9513,2.948,2.9431,2.9401,2.9393,2.9338,2.9317,2.9266,2.9241,2.9204,2.913,2.9093,2.9065,2.9035,2.9016,2.9022,2.902,2.8992,2.8989,2.8987,2.8974,2.8971,2.9019,2.9019,2.9019,0,2.9585,2.953,2.9497,2.9459,2.9432,2.9403,2.9367,2.9336,2.9274,2.9255,2.9254,2.916,2.9123,2.9063,2.9056,2.9035,2.9022,2.9028,2.8993,2.899,2.8987,2.8975,2.897,2.902,2.9019,2.9019,2.9019,0,2.954,2.9501,2.948,2.9424,2.9393,2.9357,2.9317,2.929,2.927,2.924,2.9188,2.9143,2.9089,2.9074,2.9053,2.901,2.901,2.9002,2.8999,2.8986,2.8973,2.8968,2.9021,2.9021,2.902,2.902,0,0,2.9535,2.9463,2.9455,2.9429,2.9373,2.9341,2.9302,2.9253,2.923,2.9188,2.9153,2.9092,2.9083,2.9051,2.9026,2.9002,2.8979,2.8995,2.8994,2.8992,2.8927,2.8933,2.8928,2.8967,2.8966,2.8965,2.8931,0,2.9508,2.9441,2.9411,2.9356,2.9319,2.9292,2.9258,2.9219,2.919,2.9152,2.9119,2.9076,2.9069,2.905,2.9025,2.8987,2.8965,2.8989,2.8931,2.8929,2.8943,2.8922,2.8927,2.8898,2.8926,2.8925,2.8925,0,2.9469,2.943,2.9372,2.932,2.9303,2.9274,2.9226,2.9191,2.9145,2.9126,2.9091,2.9067,2.9023,2.9025,2.8963,2.898,2.8955,2.8933,2.8931,2.8922,2.8925,2.8911,2.8887,2.8882,2.8917,2.8918,2.8918,0,2.9469,2.9402,2.9358,2.9337,2.9276,2.9256,2.9229,2.9184,2.9156,2.9113,2.9094,2.9046,2.9019,2.8981,2.8944,2.8949,2.8884,2.8884,2.8864,2.8865,2.885,2.8851,2.8821,2.8837,2.8837,2.8838,2.8838,0,2.9442,2.9407,2.9358,2.9331,2.929,2.9256,2.9216,2.9186,2.9147,2.9112,2.9085,2.9052,2.9006,2.8967,2.8937,2.8889,2.8877,2.8858,2.8851,2.886,2.8862,2.884,2.8841,2.8836,2.8837,2.8837,2.8837,0,2.9434,2.9401,2.9351,2.9298,2.9284,2.9256,2.921,2.9181,2.9152,2.9108,2.9095,2.9048,2.9,2.8961,2.8897,2.8878,2.8827,2.8819,2.8843,2.8838,2.8821,2.8822,2.8774,2.8765,2.879,2.879,2.879,0,2.9418,2.9391,2.9336,2.9312,2.9287,2.9248,2.922,2.9185,2.9156,2.9102,2.9079,2.9031,2.899,2.8914,2.8873,2.8824,2.8813,2.8799,2.8805,2.8815,2.881,2.8811,2.8807,2.8798,2.8798,2.8798,2.8798,0,2.9392,2.9377,2.934,2.9296,2.9264,2.9227,2.9189,2.917,2.9127,2.9096,2.9049,2.9017,2.8954,2.8905,2.8852,2.8821,2.8801,2.8797,2.879,2.8797,2.8812,2.8802,2.884,2.8797,2.8798,2.8798,2.8798,2.8798,2.9378,2.9353,2.9311,2.9269,2.9238,2.9203,2.9174,2.9142,2.9103,2.905,2.9031,2.8982,2.8935,2.8863,2.8832,2.8791,2.8789,2.8778,2.8775,2.8773,2.8773,2.8821,2.8782,2.8782,2.8782,2.8782,2.8782,0,2.935,2.9322,2.9284,2.9234,2.92,2.9189,2.9146,2.9118,2.9076,2.9036,2.8997,2.8942,2.8894,2.885,2.8799,2.8775,2.8765,2.8763,2.8763,2.8756,2.8779,2.879,2.8772,2.8772,2.8772,2.8772,2.8772,2.8772,2.9331,2.9287,2.9267,2.9206,2.9177,2.9131,2.9108,2.9075,2.9043,2.8983,2.8945,2.8917,2.8874,2.8821,2.8776,2.8764,2.8745,2.8746,2.8731,2.8753,2.8754,2.8756,2.8765,2.8743,2.8743,2.871,2.871,2.871]}]]